Location: Gleizolles
(44.4833°N, 6.7667°E)
Time: 21:22:21
(UTC+00:00)

A-11 Canister half - Pass Details

Date: 29 June 2024
Orbit: 1524 x 1684 km, 47.3° (Epoch: 18 July)

Event Time Altitude Azimuth Distance (km) Brightness Sun altitude
Rises 11:04:51 0° 242° (WSW) 4,786 11.6 67.7°
Reaches altitude 10° 11:07:58 10° 241° (WSW) 3,781 11.3 67.9°
Maximum altitude 11:17:32 82° 156° (SSE) 1,565 11.2 68.3°
Drops below altitude 10° 11:26:52 10° 71° (ENE) 3,698 11.1 68.6°
Sets 11:29:53 0° 70° (ENE) 4,677 11.5 68.7°
